Wind_Speed
16 15 13 16 15 17 24 27 29 34 31 36 35 39 39 34 34 34 32 29 29 30 33 35 37 44 44 43 39 38 38 37 37 40 39 38 33 35 35 31 31 31 30 29
20 18 18 17 18 17 18 21 24 23 27 43 38 38 37 31 34 36 35 32 31 31 32 36 36 41 46 45 42 38 37 35 36 37 40 39 35 36 33 32 33 32 32 30
24 25 21 22 21 22 21 21 20 24 27 29 38 45 40 33 33 35 34 35 35 33 35 35 38 39 45 44 45 41 37 35 36 35 39 41 37 36 33 36 35 33 31 30
30 27 28 27 26 28 26 25 25 24 24 25 31 42 35 32 34 34 35 41 38 37 35 35 33 39 42 41 42 46 43 36 36 36 38 37 38 38 38 37 34 33 32 31
35 34 32 32 32 31 33 28 29 29 29 28 23 35 29 27 28 37 37 39 39 40 39 38 36 32 38 43 42 42 45 38 38 37 37 37 39 40 39 35 35 33 33 33
36 40 36 37 37 36 38 36 34 33 35 36 27 29 30 23 27 29 37 39 39 41 41 40 37 36 33 42 42 40 43 38 38 39 38 39 41 40 37 36 35 34 35 34
39 40 42 42 41 41 42 42 41 41 39 38 36 34 33 25 23 23 27 34 42 42 41 40 39 36 35 39 45 41 44 39 38 40 40 41 41 38 37 37 36 37 35 35
39 42 44 44 45 46 47 46 46 45 44 43 40 38 38 33 28 22 25 31 35 40 41 41 40 37 37 37 44 45 45 41 39 41 42 43 42 38 39 38 37 36 36 35
42 45 46 48 48 48 47 47 45 47 47 49 46 44 41 43 38 33 27 30 33 35 39 39 39 38 38 37 42 45 46 43 41 42 46 47 43 40 39 39 39 37 36 35
47 50 50 51 51 49 48 47 45 45 47 50 51 46 43 46 45 38 30 27 32 36 34 37 39 38 36 36 41 42 47 47 42 46 49 48 45 42 42 40 39 37 37 35
52 54 52 52 49 48 47 45 45 46 46 48 51 42 27 36 44 38 36 32 31 34 33 33 37 37 39 40 41 41 47 50 43 47 50 49 46 46 43 41 40 38 38 36
54 54 54 49 45 47 49 47 48 48 49 50 51 53 34 40 40 43 43 36 34 34 36 37 36 37 40 41 42 47 44 47 47 46 52 51 50 49 47 44 42 41 40 39
51 52 51 48 46 49 49 49 49 50 51 53 54 55 51 53 52 46 48 44 41 39 37 37 37 37 41 45 45 47 46 49 46 45 52 54 53 50 48 45 42 41 41 40
50 49 49 49 47 50 51 51 52 52 53 54 57 56 55 53 56 57 54 47 41 43 41 39 40 41 40 47 47 45 49 46 44 46 48 53 53 51 48 46 44 44 43 42
51 51 51 50 51 52 53 54 53 56 56 62 53 60 57 61 60 61 58 56 50 51 50 46 44 43 43 45 46 51 45 51 49 49 46 51 53 52 50 47 46 45 44 43
53 54 55 54 55 56 57 57 57 58 58 63 64 64 62 65 65 66 63 59 59 59 56 51 48 48 49 44 47 48 51 48 52 50 51 49 53 53 51 50 49 47 45 44
55 55 57 59 57 60 64 59 61 63 64 66 68 66 69 69 71 70 70 64 61 59 61 57 52 48 48 53 48 40 53 50 52 53 51 51 51 52 52 51 50 47 45 44
56 57 59 62 60 67 65 64 67 68 68 67 70 72 73 75 75 74 73 68 63 61 59 60 56 51 49 46 52 51 43 53 48 53 56 52 53 50 52 52 51 48 45 44
56 57 59 60 61 67 68 61 51 54 64 56 62 72 73 75 76 78 77 73 68 63 61 60 63 58 57 54 50 51 48 46 55 48 54 57 51 55 53 50 49 48 46 45
58 58 54 51 56 57 50 40 35 35 49 46 47 52 53 62 74 78 79 78 74 67 62 61 61 62 59 56 52 48 50 50 49 57 51 55 61 50 53 52 53 50 48 48
49 49 50 44 46 49 39 34 33 43 40 32 41 45 49 48 49 61 74 80 79 71 65 62 61 63 61 58 55 48 49 49 53 52 57 52 54 61 52 52 52 51 50 50
42 42 44 43 48 53 33 35 46 41 43 47 48 43 36 35 37 43 54 69 79 76 68 64 62 61 61 59 57 52 48 50 50 49 53 56 53 57 61 53 51 52 52 51
39 36 39 40 44 39 38 43 41 46 50 46 41 37 33 32 28 26 33 47 67 76 72 67 63 60 59 59 58 54 50 47 49 47 42 53 57 54 56 58 56 55 56 54
28 31 39 46 42 43 39 39 43 49 47 42 38 36 30 32 34 30 27 36 47 65 71 68 65 60 58 58 58 54 52 46 46 49 42 45 53 59 56 55 55 54 53 55
26 27 29 37 38 38 38 40 41 41 42 41 38 37 31 31 31 34 37 35 40 51 68 67 65 63 58 55 57 54 51 48 45 46 44 39 45 55 56 61 61 59 58 57
36 38 32 36 36 37 37 35 35 36 34 36 37 36 34 33 36 42 45 44 34 42 54 64 63 61 58 55 55 54 52 47 43 43 45 40 45 50 54 56 57 58 56 51
Wind_Direction
310 315 318 320 315 291 275 272 273 263 259 262 256 251 252 250 251 252 255 256 255 259 258 250 246 242 241 237 239 242 242 243 239 242 239 241 241 239 237 237 230 223 223 225
295 293 298 302 307 310 305 293 277 270 265 258 259 258 259 256 252 254 258 256 252 249 252 257 250 245 242 238 233 236 239 240 243 241 243 241 236 235 235 229 224 225 226 229
289 290 288 290 291 291 296 299 296 286 272 268 265 257 258 257 253 254 257 255 251 248 249 256 252 251 247 240 236 231 234 236 239 237 239 242 237 237 227 222 224 226 229 233
283 283 286 285 284 281 281 285 287 287 285 278 272 268 257 261 254 251 249 251 254 253 251 251 254 253 253 245 238 234 233 230 237 233 233 233 229 226 219 221 226 229 232 235
281 278 276 277 275 278 279 277 277 280 281 281 283 286 273 264 255 253 249 249 251 253 252 252 253 255 250 246 241 239 233 227 235 230 229 226 221 217 217 221 228 231 234 237
277 279 277 273 272 273 275 275 273 272 273 273 277 281 291 280 267 257 249 251 252 251 252 253 255 253 252 241 240 242 234 228 236 230 226 220 216 215 218 224 227 232 235 238
284 277 277 274 271 270 271 274 274 271 267 269 272 272 275 280 280 267 257 249 250 250 252 253 252 251 254 242 239 239 232 223 234 230 224 218 216 216 220 226 228 232 235 239
284 282 283 280 273 270 268 266 269 272 269 267 266 265 270 272 274 271 256 248 248 246 248 250 251 250 250 247 237 238 234 222 229 226 219 219 218 218 223 227 229 232 235 237
283 283 282 280 277 275 271 268 265 265 264 264 262 265 265 270 268 264 266 252 248 248 244 245 248 247 244 244 237 236 238 219 228 222 220 220 220 221 225 228 230 232 235 237
277 276 275 276 276 274 273 271 268 265 263 262 261 263 269 264 263 263 259 254 254 250 244 243 242 245 244 244 235 234 240 220 228 224 221 222 221 223 226 229 231 232 235 238
277 276 277 277 276 272 271 269 266 264 261 262 260 255 251 264 260 258 254 249 251 254 246 240 239 241 238 240 236 232 238 227 225 226 223 223 224 226 228 230 231 232 235 238
279 280 279 276 274 273 270 267 266 263 260 256 255 250 246 250 250 261 254 251 252 253 251 246 238 237 236 238 239 238 235 239 224 228 223 223 224 227 230 231 232 232 235 238
281 278 279 277 272 270 270 270 267 265 263 259 259 252 249 244 249 246 252 251 251 248 246 249 247 239 232 233 236 234 234 240 232 225 225 223 224 227 230 233 234 236 237 240
280 278 277 276 273 274 272 272 270 267 263 261 260 256 258 258 256 254 255 256 245 237 243 250 249 244 238 230 233 236 233 238 232 221 228 225 225 227 230 232 234 236 237 239
279 278 276 274 270 267 267 268 267 270 271 268 259 260 260 260 255 252 250 247 244 236 244 246 241 244 244 238 235 232 234 231 232 227 226 227 227 227 229 231 234 237 239 240
279 279 277 275 273 271 268 266 267 267 266 267 267 262 260 257 257 255 252 248 243 241 241 243 243 244 245 241 235 234 230 234 234 227 222 229 228 229 229 230 234 237 239 240
278 279 279 276 276 274 270 272 272 270 265 266 262 262 261 260 258 254 252 251 248 242 240 239 241 242 240 240 236 233 229 230 231 231 225 227 230 229 230 232 233 235 238 239
280 280 281 279 278 275 278 278 276 277 274 272 268 261 257 258 257 256 253 250 248 246 239 236 235 233 236 239 239 236 233 226 229 231 228 227 227 230 231 233 234 235 235 237
282 280 280 279 278 278 275 283 285 285 278 276 272 263 260 258 255 254 254 253 248 243 240 235 234 232 237 243 240 239 239 230 226 230 231 225 229 230 233 235 234 234 234 237
280 279 278 277 274 274 281 285 283 281 275 273 275 275 269 260 256 251 251 252 250 243 237 235 233 232 234 238 242 240 237 233 229 226 229 229 226 228 227 230 233 232 233 234
279 274 272 270 271 272 284 294 278 273 300 299 286 279 274 273 268 256 248 247 248 243 239 233 231 231 231 234 237 240 237 236 238 227 225 228 230 227 228 226 230 231 231 233
269 273 269 268 269 271 293 279 282 290 286 285 283 279 273 268 272 269 254 247 244 241 238 234 228 228 229 231 232 236 238 236 240 237 226 224 227 228 229 226 229 231 230 230
267 273 280 280 280 276 278 275 281 280 282 285 280 278 273 267 274 282 271 256 245 240 235 233 229 226 227 227 230 232 236 237 238 241 235 224 224 226 227 226 227 230 231 233
274 281 283 275 274 279 276 276 280 280 280 272 270 270 269 272 274 281 284 266 254 242 233 230 228 224 225 225 226 230 233 235 235 238 237 229 229 226 228 228 227 231 235 236
276 272 273 274 275 279 275 276 275 274 267 269 269 266 264 270 279 286 285 283 264 247 233 227 226 224 222 224 225 226 230 233 235 238 236 231 231 232 229 230 231 233 234 237
285 288 282 278 278 275 274 265 270 275 276 274 270 265 267 277 278 285 286 281 273 253 235 225 223 224 221 221 224 225 227 229 233 235 241 233 226 229 232 233 234 237 235 240
Height
5645 5645 5644 5643 5643 5643 5642 5642 5642 5645 5646 5645 5650 5651 5655 5662 5662 5665 5668 5670 5671 5673 5672 5674 5677 5681 5687 5691 5697 5703 5707 5711 5716 5720 5723 5726 5730 5733 5736 5741 5745 5749 5752 5756
5644 5641 5640 5639 5638 5638 5638 5637 5638 5640 5638 5638 5642 5644 5647 5653 5655 5656 5658 5660 5662 5663 5665 5667 5670 5672 5676 5683 5687 5692 5698 5703 5708 5712 5714 5717 5722 5726 5731 5736 5739 5743 5747 5751
5638 5638 5637 5635 5634 5633 5633 5633 5633 5632 5633 5633 5631 5635 5639 5645 5647 5647 5647 5648 5651 5654 5657 5660 5662 5664 5667 5674 5679 5685 5689 5693 5699 5703 5706 5709 5715 5721 5726 5729 5732 5738 5742 5746
5631 5632 5631 5630 5630 5627 5627 5628 5627 5627 5627 5627 5626 5622 5633 5634 5637 5633 5636 5640 5643 5647 5649 5652 5654 5657 5659 5665 5669 5676 5679 5684 5690 5693 5697 5702 5707 5712 5717 5722 5728 5731 5735 5739
5625 5624 5624 5624 5623 5623 5621 5622 5620 5620 5620 5621 5623 5617 5622 5626 5627 5624 5631 5631 5633 5636 5640 5643 5645 5648 5651 5655 5660 5665 5670 5674 5680 5684 5689 5694 5699 5704 5710 5715 5720 5724 5728 5732
5617 5615 5616 5615 5615 5615 5613 5614 5613 5612 5612 5613 5618 5615 5613 5614 5614 5618 5619 5620 5622 5626 5629 5633 5637 5639 5641 5645 5650 5655 5661 5667 5673 5676 5682 5686 5691 5698 5704 5708 5712 5717 5722 5725
5606 5607 5605 5605 5606 5606 5605 5604 5604 5603 5604 5605 5607 5609 5608 5606 5608 5610 5609 5611 5613 5617 5620 5622 5626 5630 5632 5636 5639 5645 5650 5656 5664 5668 5674 5679 5684 5691 5696 5700 5705 5709 5714 5717
5596 5596 5595 5597 5596 5595 5594 5595 5595 5593 5594 5595 5597 5600 5599 5599 5601 5602 5601 5603 5604 5606 5609 5612 5616 5620 5623 5626 5631 5635 5639 5646 5653 5659 5665 5670 5676 5683 5687 5692 5697 5701 5705 5710
5585 5585 5584 5584 5583 5583 5583 5583 5583 5581 5584 5583 5588 5589 5591 5587 5590 5592 5594 5594 5595 5597 5598 5602 5606 5610 5613 5616 5621 5625 5629 5635 5643 5650 5655 5660 5667 5674 5679 5683 5688 5693 5698 5701
5574 5573 5574 5572 5571 5569 5569 5571 5571 5571 5571 5572 5576 5578 5577 5575 5577 5581 5586 5586 5586 5586 5589 5592 5595 5599 5603 5606 5611 5615 5618 5625 5633 5640 5645 5651 5658 5663 5668 5674 5679 5684 5689 5693
5560 5560 5564 5561 5560 5558 5557 5558 5558 5558 5560 5560 5563 5567 5567 5562 5565 5569 5573 5576 5578 5578 5579 5582 5585 5588 5592 5596 5601 5606 5609 5613 5622 5628 5635 5642 5650 5654 5660 5666 5671 5676 5680 5685
5546 5543 5546 5550 5548 5541 5542 5543 5543 5543 5547 5547 5548 5553 5554 5553 5554 5557 5561 5566 5569 5568 5569 5571 5574 5577 5582 5586 5590 5594 5599 5602 5609 5617 5623 5631 5638 5644 5650 5656 5662 5667 5671 5675
5534 5529 5529 5533 5533 5527 5528 5528 5529 5530 5530 5533 5532 5538 5544 5542 5545 5545 5546 5553 5556 5557 5559 5561 5563 5566 5569 5574 5578 5583 5587 5591 5596 5605 5613 5620 5628 5634 5641 5647 5653 5658 5662 5666
5517 5518 5517 5518 5517 5512 5512 5513 5512 5512 5514 5516 5517 5524 5527 5531 5531 5532 5535 5542 5546 5546 5548 5550 5552 5555 5558 5562 5567 5572 5577 5582 5586 5593 5603 5611 5617 5624 5631 5637 5643 5648 5652 5657
5503 5503 5502 5503 5501 5499 5498 5499 5498 5496 5499 5492 5509 5500 5512 5508 5512 5514 5521 5525 5528 5533 5536 5537 5540 5543 5547 5551 5555 5560 5565 5570 5577 5583 5591 5600 5606 5613 5620 5627 5632 5637 5642 5647
5488 5487 5484 5486 5481 5479 5481 5482 5484 5484 5482 5475 5479 5482 5489 5487 5489 5491 5499 5507 5513 5517 5521 5525 5528 5532 5535 5539 5543 5548 5554 5559 5565 5572 5579 5587 5594 5601 5609 5615 5620 5626 5631 5636
5474 5470 5466 5465 5463 5458 5460 5469 5464 5461 5463 5459 5459 5469 5464 5466 5466 5471 5477 5487 5494 5500 5504 5510 5515 5518 5522 5526 5530 5535 5542 5548 5554 5560 5567 5575 5582 5590 5597 5603 5609 5615 5621 5626
5457 5454 5448 5443 5443 5435 5447 5447 5443 5439 5439 5438 5437 5444 5444 5441 5445 5451 5455 5466 5474 5481 5487 5493 5499 5505 5509 5513 5517 5523 5529 5535 5542 5548 5554 5562 5570 5577 5584 5591 5597 5603 5609 5615
5440 5435 5429 5423 5421 5422 5427 5431 5425 5419 5417 5416 5411 5415 5421 5421 5422 5429 5436 5444 5453 5462 5470 5476 5483 5490 5496 5500 5505 5511 5517 5523 5530 5535 5541 5548 5556 5564 5572 5579 5586 5592 5598 5604
5423 5418 5412 5409 5401 5399 5412 5419 5413 5405 5390 5399 5398 5399 5399 5396 5397 5410 5415 5419 5429 5441 5451 5459 5466 5474 5481 5486 5492 5499 5504 5511 5516 5522 5528 5534 5543 5551 5560 5567 5574 5580 5585 5591
5402 5399 5395 5394 5388 5387 5401 5404 5400 5389 5392 5391 5387 5383 5379 5379 5380 5383 5391 5397 5405 5420 5432 5441 5449 5457 5465 5472 5479 5485 5492 5497 5501 5509 5516 5523 5530 5539 5546 5553 5561 5567 5573 5578
5387 5386 5384 5383 5380 5375 5393 5389 5384 5382 5378 5376 5373 5370 5368 5368 5367 5368 5372 5375 5383 5397 5411 5423 5431 5440 5449 5457 5465 5473 5478 5484 5490 5496 5504 5512 5518 5525 5533 5541 5548 5554 5561 5566
5371 5374 5372 5371 5368 5372 5375 5372 5370 5366 5363 5363 5361 5360 5359 5357 5357 5358 5358 5358 5363 5373 5390 5401 5413 5423 5432 5442 5450 5459 5465 5472 5478 5484 5492 5500 5506 5513 5520 5528 5535 5542 5548 5555
5362 5362 5360 5359 5361 5361 5362 5359 5356 5353 5349 5348 5349 5348 5350 5348 5348 5348 5348 5346 5347 5353 5368 5383 5396 5407 5417 5426 5435 5445 5452 5460 5466 5473 5480 5487 5494 5502 5509 5516 5523 5530 5536 5542
5355 5355 5354 5349 5351 5350 5347 5345 5341 5338 5337 5337 5339 5337 5338 5338 5339 5337 5336 5335 5335 5338 5351 5366 5380 5392 5402 5412 5422 5431 5440 5448 5455 5462 5469 5476 5482 5489 5496 5504 5511 5517 5523 5528
5349 5345 5340 5336 5337 5335 5334 5334 5331 5328 5328 5328 5327 5328 5329 5329 5327 5325 5323 5322 5323 5325 5334 5349 5364 5377 5389 5399 5409 5419 5427 5436 5443 5451 5458 5465 5471 5476 5483 5491 5498 5504 5511 5516